| time (UTC) | temp F | wind direction | speed MPH | gust MPH | rain 1hr in | rain 24hr in | rain mn in | humidity % | barometer mb |
| 20260903141016 | 86 | 122 | 8.0 | 14.0 | 0.00 | 0.00 | 0.00 | 59 | 1019.3 |
| 20260903140031 | 86 | 97 | 6.0 | 10.0 | 0.00 | 0.00 | 0.00 | 59 | 1019.4 |
| 20260903135026 | 86 | 117 | 7.0 | 14.0 | 0.00 | 0.00 | 0.00 | 60 | 1019.5 |
| 20260903134021 | 86 | 120 | 7.0 | 14.0 | 0.00 | 0.00 | 0.00 | 61 | 1019.6 |
| 20260903133017 | 86 | 104 | 6.0 | 14.0 | 0.00 | 0.00 | 0.00 | 61 | 1019.7 |
| 20260903132032 | 87 | 104 | 7.0 | 13.0 | 0.00 | 0.00 | 0.00 | 58 | 1019.7 |
| 20260903131027 | 86 | 133 | 6.0 | 10.0 | 0.00 | 0.00 | 0.00 | 57 | 1019.9 |
| 20260903130022 | 86 | 105 | 6.0 | 13.0 | 0.00 | 0.00 | 0.00 | 58 | 1019.8 |
| 20260903125018 | 86 | 115 | 6.0 | 13.0 | 0.00 | 0.00 | 0.00 | 58 | 1019.9 |
| 20260903124033 | 86 | 122 | 7.0 | 16.0 | 0.00 | 0.00 | 0.00 | 61 | 1019.9 |
| 20260903123028 | 87 | 103 | 5.0 | 10.0 | 0.00 | 0.00 | 0.00 | 61 | 1020.0 |
| 20260903122023 | 86 | 128 | 5.0 | 10.0 | 0.00 | 0.00 | 0.00 | 64 | 1020.0 |
| 20260903121019 | 86 | 103 | 6.0 | 14.0 | 0.00 | 0.00 | 0.00 | 66 | 1020.1 |
| 20260903120034 | 86 | 116 | 6.0 | 14.0 | 0.00 | 0.00 | 0.00 | 67 | 1020.2 |
| 20260903115029 | 86 | 120 | 5.0 | 13.0 | 0.00 | 0.00 | 0.00 | 68 | 1020.2 |
| 20260903114025 | 85 | 127 | 6.0 | 10.0 | 0.00 | 0.00 | 0.00 | 69 | 1020.4 |
| 20260903113020 | 86 | 103 | 6.0 | 10.0 | 0.00 | 0.00 | 0.00 | 68 | 1020.4 |
| 20260903112115 | 86 | 128 | 5.0 | 10.0 | 0.00 | 0.00 | 0.00 | 68 | 1020.5 |
| 20260903111030 | 85 | 150 | 4.0 | 10.0 | 0.00 | 0.00 | 0.00 | 69 | 1020.6 |
| 20260903110025 | 85 | 156 | 5.0 | 8.0 | 0.00 | 0.00 | 0.00 | 70 | 1020.7 |
| 20260903105021 | 84 | 111 | 5.0 | 9.0 | 0.00 | 0.00 | 0.00 | 72 | 1020.8 |
| 20260903104016 | 83 | 111 | 6.0 | 14.0 | 0.00 | 0.00 | 0.00 | 74 | 1020.9 |
| 20260903103031 | 84 | 137 | 6.0 | 14.0 | 0.00 | 0.00 | 0.00 | 73 | 1021.0 |
| 20260903102027 | 84 | 122 | 6.0 | 13.0 | 0.00 | 0.00 | 0.00 | 73 | 1021.0 |
| 20260903101042 | 84 | 147 | 3.0 | 8.0 | 0.00 | 0.00 | 0.00 | 71 | 1021.0 |
| 20260903100017 | 83 | 78 | 2.0 | 7.0 | 0.00 | 0.00 | 0.00 | 73 | 1020.9 |
| 20260903095033 | 84 | 103 | 4.0 | 9.0 | 0.00 | 0.00 | 0.00 | 70 | 1020.8 |
| 20260903094028 | 84 | 128 | 1.0 | 4.0 | 0.00 | 0.00 | 0.00 | 70 | 1020.9 |
| 20260903093024 | 84 | 148 | 2.0 | 7.0 | 0.00 | 0.00 | 0.00 | 70 | 1020.9 |
| 20260903092039 | 83 | 149 | 2.0 | 7.0 | 0.00 | 0.00 | 0.00 | 72 | 1021.0 |
| 20260903091034 | 83 | 71 | 1.0 | 2.0 | 0.00 | 0.00 | 0.00 | 72 | 1021.1 |
| 20260903090030 | 84 | 106 | 1.0 | 4.0 | 0.00 | 0.00 | 0.00 | 71 | 1021.0 |
| 20260903085025 | 83 | 95 | 0.0 | 1.0 | 0.00 | 0.00 | 0.00 | 72 | 1021.0 |
| 20260903084020 | 82 | 127 | 1.0 | 2.0 | 0.00 | 0.00 | 0.00 | 74 | 1020.8 |
| 20260903083035 | 81 | 113 | 2.0 | 3.0 | 0.00 | 0.00 | 0.00 | 77 | 1020.8 |
| 20260903082030 | 81 | 55 | 0.0 | 2.0 | 0.00 | 0.00 | 0.00 | 78 | 1020.7 |
| 20260903081026 | 82 | 88 | 0.0 | 1.0 | 0.00 | 0.00 | 0.00 | 77 | 1020.8 |
| 20260903080022 | 81 | 106 | 1.0 | 2.0 | 0.00 | 0.00 | 0.00 | 77 | 1020.9 |
| 20260903075057 | 81 | 101 | 0.0 | 1.0 | 0.00 | 0.00 | 0.00 | 78 | 1020.7 |
| 20260903074032 | 80 | 123 | 0.0 | 2.0 | 0.00 | 0.00 | 0.00 | 79 | 1020.8 |
| 20260903073027 | 80 | 95 | 0.0 | 2.0 | 0.00 | 0.00 | 0.00 | 79 | 1020.8 |
| 20260903072023 | 80 | 58 | 0.0 | 1.0 | 0.00 | 0.00 | 0.00 | 79 | 1020.7 |
| 20260903071019 | 79 | 53 | 0.0 | 1.0 | 0.00 | 0.00 | 0.00 | 81 | 1020.8 |
| 20260903070034 | 78 | 0.0 | 0.0 | 0.00 | 0.00 | 0.00 | 85 | 1020.7 | |
| 20260903065029 | 77 | 0.0 | 0.0 | 0.00 | 0.00 | 0.00 | 87 | 1020.6 | |
| 20260903064024 | 76 | 0.0 | 0.0 | 0.00 | 0.00 | 0.00 | 89 | 1020.5 | |
| 20260903063020 | 76 | 0.0 | 0.0 | 0.00 | 0.00 | 0.00 | 90 | 1020.4 | |
| 20260903062115 | 75 | 0.0 | 0.0 | 0.00 | 0.00 | 0.00 | 90 | 1020.2 | |
| 20260903061030 | 75 | 0.0 | 0.0 | 0.00 | 0.00 | 0.00 | 91 | 1020.3 | |
| 20260903060025 | 75 | 0.0 | 0.0 | 0.00 | 0.00 | 0.00 | 91 | 1020.0 | |
| 20260903055020 | 75 | 358 | 0.0 | 1.0 | 0.00 | 0.00 | 0.00 | 91 | 1019.8 |
| 20260903054016 | 75 | 4 | 0.0 | 1.0 | 0.00 | 0.00 | 0.00 | 91 | 1019.8 |
| 20260903053031 | 74 | 352 | 0.0 | 2.0 | 0.00 | 0.00 | 0.00 | 92 | 1019.7 |
| 20260903052027 | 75 | 351 | 0.0 | 1.0 | 0.00 | 0.00 | 0.00 | 92 | 1019.7 |
| 20260903051042 | 75 | 351 | 0.0 | 1.0 | 0.00 | 0.00 | 0.00 | 92 | 1019.7 |
| 20260903050017 | 75 | 0.0 | 0.0 | 0.00 | 0.00 | 0.00 | 91 | 1019.7 | |
| 20260903045033 | 75 | 0.0 | 0.0 | 0.00 | 0.00 | 0.00 | 91 | 1019.6 | |
| 20260903044028 | 75 | 0.0 | 0.0 | 0.00 | 0.00 | 0.00 | 91 | 1019.5 | |
| 20260903043023 | 75 | 0.0 | 0.0 | 0.00 | 0.00 | 0.00 | 91 | 1019.3 | |
| 20260903042018 | 75 | 0.0 | 0.0 | 0.00 | 0.00 | 0.00 | 91 | 1019.3 | |
| 20260903041034 | 75 | 0.0 | 0.0 | 0.00 | 0.00 | 0.00 | 91 | 1019.2 | |
| 20260903040050 | 75 | 0.0 | 0.0 | 0.00 | 0.00 | 0.00 | 91 | 1019.3 | |
| 20260903035024 | 75 | 0.0 | 0.0 | 0.00 | 0.00 | 0.00 | 90 | 1019.2 | |
| 20260903034020 | 76 | 0.0 | 0.0 | 0.00 | 0.00 | 0.00 | 90 | 1019.3 | |
| 20260903033015 | 76 | 0.0 | 0.0 | 0.00 | 0.00 | 0.00 | 90 | 1019.3 | |
| 20260903032050 | 76 | 0.0 | 0.0 | 0.00 | 0.00 | 0.00 | 89 | 1019.3 | |
| 20260903031026 | 76 | 0.0 | 0.0 | 0.00 | 0.00 | 0.00 | 89 | 1019.3 | |
| 20260903030021 | 76 | 348 | 0.0 | 1.0 | 0.00 | 0.00 | 0.00 | 89 | 1019.3 |
| 20260903025056 | 76 | 0.0 | 0.0 | 0.00 | 0.00 | 0.00 | 89 | 1019.4 | |
| 20260903024051 | 76 | 0.0 | 0.0 | 0.00 | 0.00 | 0.00 | 89 | 1019.3 | |
| 20260903023026 | 76 | 0.0 | 0.0 | 0.00 | 0.00 | 0.00 | 88 | 1019.4 | |
| 20260903022022 | 77 | 0.0 | 0.0 | 0.00 | 0.00 | 0.00 | 88 | 1019.4 | |
| 20260903021017 | 77 | 0.0 | 0.0 | 0.00 | 0.00 | 0.00 | 88 | 1019.5 | |
| 20260903020033 | 77 | 282 | 0.0 | 2.0 | 0.00 | 0.00 | 0.00 | 88 | 1019.4 |
| 20260903015028 | 77 | 320 | 0.0 | 1.0 | 0.00 | 0.00 | 0.00 | 88 | 1019.3 |
| 20260903014024 | 77 | 0.0 | 0.0 | 0.00 | 0.00 | 0.00 | 88 | 1019.4 | |
| 20260903013018 | 77 | 311 | 0.0 | 1.0 | 0.00 | 0.00 | 0.00 | 88 | 1019.4 |
| 20260903012033 | 77 | 288 | 0.0 | 2.0 | 0.00 | 0.00 | 0.00 | 88 | 1019.4 |
| 20260903011109 | 77 | 290 | 0.0 | 1.0 | 0.00 | 0.00 | 0.00 | 88 | 1019.4 |
| 20260903010025 | 77 | 290 | 0.0 | 1.0 | 0.00 | 0.00 | 0.00 | 88 | 1019.4 |
| 20260903005020 | 77 | 290 | 0.0 | 1.0 | 0.00 | 0.00 | 0.00 | 88 | 1019.5 |
| 20260903004015 | 78 | 290 | 0.0 | 1.0 | 0.00 | 0.00 | 0.00 | 88 | 1019.5 |
| 20260903003031 | 78 | 304 | 0.0 | 1.0 | 0.00 | 0.00 | 0.00 | 88 | 1019.6 |
| 20260903002026 | 78 | 296 | 0.0 | 1.0 | 0.00 | 0.00 | 0.00 | 88 | 1019.8 |
| 20260903001021 | 78 | 284 | 0.0 | 1.0 | 0.00 | 0.00 | 0.00 | 88 | 1019.9 |
| 20260903000017 | 78 | 308 | 0.0 | 1.0 | 0.00 | 0.00 | 0.00 | 88 | 1019.8 |
| 20260902235032 | 78 | 319 | 0.0 | 2.0 | 0.00 | 0.00 | 0.00 | 88 | 1019.8 |
| 20260902234028 | 78 | 266 | 1.0 | 2.0 | 0.00 | 0.00 | 0.00 | 88 | 1019.7 |
| 20260902233023 | 78 | 302 | 0.0 | 2.0 | 0.00 | 0.00 | 0.00 | 88 | 1019.7 |
| 20260902232039 | 78 | 44 | 0.0 | 1.0 | 0.00 | 0.00 | 0.00 | 88 | 1019.9 |
| 20260902231034 | 78 | 62 | 0.0 | 1.0 | 0.00 | 0.00 | 0.00 | 89 | 1019.8 |
| 20260902230029 | 78 | 0.0 | 0.0 | 0.00 | 0.00 | 0.00 | 89 | 1019.8 | |
| 20260902225024 | 78 | 0.0 | 0.0 | 0.00 | 0.00 | 0.00 | 89 | 1019.9 | |
| 20260902224019 | 78 | 0.0 | 0.0 | 0.00 | 0.00 | 0.00 | 89 | 1019.8 | |
| 20260902223035 | 78 | 0.0 | 0.0 | 0.00 | 0.00 | 0.00 | 89 | 1019.8 | |
| 20260902222030 | 78 | 0.0 | 0.0 | 0.00 | 0.00 | 0.00 | 88 | 1019.8 | |
| 20260902221026 | 78 | 0.0 | 0.0 | 0.00 | 0.00 | 0.00 | 88 | 1019.8 | |
| 20260902215016 | 79 | 0.0 | 0.0 | 0.00 | 0.00 | 0.00 | 88 | 1019.8 | |
| 20260902214032 | 79 | 87 | 0.0 | 1.0 | 0.00 | 0.00 | 0.00 | 88 | 1019.7 |
| 20260902213047 | 79 | 78 | 0.0 | 1.0 | 0.00 | 0.00 | 0.00 | 88 | 1019.7 |
| 20260902212022 | 79 | 109 | 0.0 | 2.0 | 0.00 | 0.00 | 0.00 | 88 | 1019.8 |
| 20260902211018 | 79 | 138 | 1.0 | 2.0 | 0.00 | 0.00 | 0.00 | 88 | 1019.8 |
| 20260902210033 | 79 | 93 | 0.0 | 1.0 | 0.00 | 0.00 | 0.00 | 87 | 1019.8 |
| 20260902205029 | 79 | 109 | 1.0 | 2.0 | 0.00 | 0.00 | 0.00 | 87 | 1019.6 |
| 20260902204024 | 78 | 104 | 0.0 | 2.0 | 0.00 | 0.00 | 0.00 | 88 | 1019.5 |
| 20260902203019 | 78 | 83 | 0.0 | 1.0 | 0.00 | 0.00 | 0.00 | 88 | 1019.5 |
| 20260902202035 | 78 | 0.0 | 0.0 | 0.00 | 0.00 | 0.00 | 88 | 1019.4 | |
| 20260902201030 | 78 | 84 | 1.0 | 2.0 | 0.00 | 0.00 | 0.00 | 88 | 1019.3 |
| 20260902200045 | 78 | 85 | 2.0 | 3.0 | 0.00 | 0.00 | 0.00 | 88 | 1019.1 |
| 20260902195021 | 78 | 86 | 2.0 | 3.0 | 0.00 | 0.00 | 0.00 | 87 | 1018.9 |
| 20260902194016 | 79 | 92 | 2.0 | 3.0 | 0.00 | 0.00 | 0.00 | 87 | 1018.7 |
| 20260902193031 | 79 | 92 | 2.0 | 4.0 | 0.00 | 0.00 | 0.00 | 86 | 1018.6 |
| 20260902192026 | 79 | 89 | 1.0 | 3.0 | 0.00 | 0.00 | 0.00 | 86 | 1018.4 |
| 20260902191022 | 79 | 56 | 1.0 | 3.0 | 0.00 | 0.00 | 0.00 | 85 | 1018.3 |
| 20260902190017 | 79 | 68 | 1.0 | 4.0 | 0.00 | 0.00 | 0.00 | 85 | 1017.9 |
| 20260902185033 | 79 | 81 | 2.0 | 6.0 | 0.00 | 0.00 | 0.00 | 85 | 1018.1 |
| 20260902184028 | 79 | 85 | 3.0 | 6.0 | 0.00 | 0.00 | 0.00 | 85 | 1018.0 |
| 20260902183023 | 80 | 94 | 4.0 | 7.0 | 0.00 | 0.00 | 0.00 | 85 | 1017.9 |
| 20260902182018 | 80 | 82 | 2.0 | 7.0 | 0.00 | 0.00 | 0.00 | 84 | 1018.0 |
| 20260902181033 | 80 | 88 | 3.0 | 7.0 | 0.00 | 0.00 | 0.00 | 83 | 1018.1 |
| 20260902180029 | 80 | 97 | 4.0 | 9.0 | 0.00 | 0.00 | 0.00 | 82 | 1018.0 |
| 20260902175044 | 80 | 89 | 4.0 | 10.0 | 0.00 | 0.00 | 0.00 | 80 | 1018.0 |
| 20260902174019 | 81 | 94 | 4.0 | 10.0 | 0.00 | 0.00 | 0.00 | 78 | 1018.1 |
| 20260902173054 | 81 | 116 | 4.0 | 9.0 | 0.00 | 0.00 | 0.00 | 78 | 1017.8 |
| 20260902172029 | 82 | 99 | 4.0 | 10.0 | 0.00 | 0.00 | 0.00 | 78 | 1018.0 |
| 20260902171024 | 82 | 108 | 5.0 | 10.0 | 0.00 | 0.00 | 0.00 | 77 | 1017.8 |
| 20260902170040 | 82 | 118 | 5.0 | 10.0 | 0.00 | 0.00 | 0.00 | 77 | 1017.9 |
| 20260902165035 | 82 | 113 | 5.0 | 10.0 | 0.00 | 0.00 | 0.00 | 76 | 1017.8 |
| 20260902164030 | 82 | 103 | 6.0 | 10.0 | 0.00 | 0.00 | 0.00 | 76 | 1017.9 |
| 20260902163026 | 82 | 91 | 4.0 | 10.0 | 0.00 | 0.00 | 0.00 | 76 | 1017.8 |
| 20260902162021 | 83 | 92 | 6.0 | 10.0 | 0.00 | 0.00 | 0.00 | 74 | 1017.8 |
| 20260902161018 | 82 | 109 | 6.0 | 10.0 | 0.00 | 0.00 | 0.00 | 76 | 1017.8 |
| 20260902160032 | 82 | 99 | 6.0 | 9.0 | 0.00 | 0.00 | 0.00 | 76 | 1017.8 |
| 20260902155027 | 82 | 100 | 5.0 | 11.0 | 0.00 | 0.00 | 0.00 | 76 | 1017.8 |
| 20260902154022 | 82 | 127 | 8.0 | 14.0 | 0.00 | 0.00 | 0.00 | 76 | 1017.9 |
| 20260902153018 | 82 | 118 | 6.0 | 13.0 | 0.00 | 0.00 | 0.00 | 76 | 1017.9 |
| 20260902152033 | 82 | 111 | 6.0 | 11.0 | 0.00 | 0.00 | 0.00 | 76 | 1018.0 |
| 20260902151028 | 82 | 99 | 7.0 | 13.0 | 0.00 | 0.00 | 0.00 | 76 | 1018.0 |
| 20260902150024 | 82 | 95 | 6.0 | 15.0 | 0.00 | 0.00 | 0.00 | 76 | 1018.0 |
| 20260902145019 | 82 | 108 | 7.0 | 16.0 | 0.00 | 0.00 | 0.00 | 75 | 1018.1 |
| 20260902144034 | 83 | 103 | 8.0 | 15.0 | 0.00 | 0.00 | 0.00 | 75 | 1018.3 |
| 20260902143030 | 83 | 123 | 7.0 | 15.0 | 0.00 | 0.00 | 0.00 | 74 | 1018.4 |
| 20260902142025 | 83 | 118 | 7.0 | 15.0 | 0.00 | 0.00 | 0.00 | 73 | 1018.3 |